Location: Pic du Midi - T1M
(42.9366°N, 0.1426°E)
Time: 00:08:38
(UTC+01:00)

X-37B - Pass Details

Date: 22 June 2021
Orbit: 383 x 392 km, 45.0° (Epoch: 01 July)

Event Time Altitude Azimuth Distance (km) Brightness Sun altitude
Rises 22:26:08 0° 231° (SW) 2,238 4.4 -14.6°
Reaches altitude 10° 22:28:15 10° 223° (SW) 1,388 3.3 -14.8°
Maximum altitude 22:31:11 38° 153° (SSE) 594 1.0 -15.1°
Enters shadow 22:31:13 38° 152° (SSE) 594 1.0 -15.2°
